GFSGBSN_prec_precacc_237.txt.gz
Total_Precipitation_Accumulation
0.49 0.31 0.29 0.31 0.31 0.27 0.25 0.23 0.18 0.14 0.09 0.06 0.06 0.05 0.04 0.03 0.02 0.02 0.02 0.01 0.00 0.01 0.01 0.00 0.01 0.02 0.01 0.00 0.00 0.00 0.00 0.00 0.00 0.00 0.00 0.00 0.00 0.00 0.00 0.00 0.00 0.00 0.00 0.00 0.00 0.00 0.00
1.49 1.25 0.78 0.51 0.35 0.26 0.23 0.25 0.27 0.26 0.24 0.19 0.15 0.11 0.08 0.07 0.06 0.04 0.02 0.00 0.01 0.01 0.01 0.01 0.01 0.03 0.01 0.00 0.00 0.00 0.00 0.00 0.00 0.00 0.00 0.00 0.00 0.00 0.00 0.00 0.00 0.00 0.00 0.00 0.00 0.00 0.00
0.69 0.84 1.09 1.09 0.89 0.74 0.57 0.35 0.28 0.26 0.26 0.25 0.21 0.18 0.18 0.16 0.14 0.11 0.05 0.01 0.00 0.01 0.01 0.01 0.02 0.04 0.01 0.00 0.00 0.00 0.00 0.00 0.00 0.00 0.00 0.00 0.00 0.00 0.00 0.00 0.00 0.00 0.00 0.00 0.00 0.00 0.00
0.69 0.60 0.56 0.63 0.86 0.95 0.92 0.80 0.66 0.50 0.39 0.40 0.40 0.37 0.31 0.26 0.17 0.09 0.04 0.01 0.00 0.01 0.01 0.01 0.02 0.03 0.00 0.00 0.00 0.00 0.00 0.00 0.00 0.00 0.00 0.00 0.00 0.00 0.00 0.00 0.00 0.00 0.00 0.00 0.00 0.00 0.00
0.61 0.68 0.66 0.64 0.69 0.70 0.67 0.63 0.55 0.47 0.47 0.42 0.36 0.29 0.25 0.18 0.17 0.16 0.11 0.03 0.00 0.01 0.01 0.01 0.01 0.02 0.00 0.00 0.00 0.00 0.00 0.00 0.00 0.00 0.00 0.00 0.00 0.00 0.00 0.00 0.00 0.00 0.00 0.00 0.00 0.00 0.00
0.47 0.45 0.46 0.47 0.46 0.42 0.37 0.30 0.23 0.21 0.21 0.21 0.19 0.18 0.15 0.13 0.14 0.16 0.11 0.07 0.02 0.00 0.00 0.00 0.02 0.01 0.00 0.00 0.00 0.00 0.00 0.01 0.02 0.00 0.00 0.00 0.00 0.00 0.00 0.00 0.00 0.00 0.00 0.00 0.00 0.00 0.00
0.56 0.48 0.41 0.36 0.33 0.29 0.26 0.27 0.30 0.26 0.21 0.18 0.14 0.11 0.12 0.13 0.15 0.16 0.09 0.06 0.07 0.09 0.04 0.01 0.01 0.01 0.00 0.00 0.00 0.00 0.00 0.00 0.01 0.01 0.01 0.03 0.00 0.00 0.01 0.00 0.00 0.00 0.00 0.00 0.00 0.00 0.00
0.59 0.55 0.49 0.44 0.40 0.43 0.42 0.39 0.33 0.25 0.22 0.18 0.15 0.14 0.13 0.11 0.15 0.14 0.04 0.05 0.03 0.11 0.16 0.03 0.01 0.00 0.00 0.00 0.00 0.00 0.00 0.01 0.02 0.04 0.05 0.04 0.04 0.00 0.00 0.00 0.00 0.02 0.02 0.00 0.00 0.00 0.00
0.76 0.63 0.56 0.49 0.45 0.40 0.40 0.43 0.39 0.37 0.31 0.22 0.17 0.16 0.17 0.15 0.14 0.07 0.01 0.01 0.01 0.07 0.22 0.03 0.00 0.00 0.00 0.01 0.00 0.00 0.00 0.00 0.05 0.11 0.06 0.09 0.03 0.00 0.00 0.00 0.01 0.01 0.01 0.00 0.00 0.00 0.02
0.90 0.81 0.64 0.55 0.51 0.48 0.44 0.42 0.40 0.36 0.32 0.27 0.22 0.20 0.22 0.26 0.13 0.04 0.03 0.01 0.03 0.21 0.42 0.04 0.02 0.03 0.04 0.07 0.01 0.00 0.00 0.00 0.07 0.09 0.09 0.21 0.04 0.02 0.03 0.02 0.01 0.06 0.00 0.00 0.02 0.08 0.10
0.97 0.83 0.72 0.59 0.54 0.54 0.49 0.44 0.36 0.37 0.40 0.41 0.33 0.26 0.28 0.27 0.15 0.10 0.04 0.01 0.13 0.37 0.52 0.05 0.11 0.05 0.07 0.05 0.01 0.06 0.00 0.00 0.02 0.07 0.20 0.33 0.21 0.24 0.22 0.05 0.02 0.07 0.00 0.01 0.01 0.02 0.08
1.76 1.07 0.76 0.64 0.58 0.52 0.51 0.48 0.43 0.38 0.36 0.41 0.46 0.35 0.38 0.31 0.14 0.03 0.01 0.09 0.31 0.84 0.42 0.03 0.14 0.10 0.14 0.09 0.01 0.02 0.01 0.00 0.00 0.05 0.06 0.10 0.03 0.06 0.05 0.00 0.01 0.02 0.02 0.03 0.05 0.09 0.22
3.19 2.33 1.61 1.00 0.84 0.77 0.62 0.57 0.53 0.48 0.42 0.46 0.60 0.56 0.52 0.24 0.17 0.14 0.22 0.56 1.10 0.77 0.06 0.03 0.08 0.25 0.16 0.20 0.22 0.05 0.02 0.00 0.00 0.03 0.07 0.07 0.06 0.05 0.03 0.12 0.05 0.05 0.04 0.14 0.31 0.24 0.12
4.73 3.65 2.69 2.13 1.49 1.06 0.90 0.81 0.76 0.78 0.70 0.74 0.88 1.00 0.86 0.44 0.22 0.32 0.85 1.76 1.35 0.36 0.03 0.00 0.11 0.23 0.24 0.17 0.24 0.05 0.02 0.02 0.02 0.02 0.04 0.05 0.19 0.07 0.05 0.27 0.12 0.05 0.05 0.10 0.36 0.22 0.19
5.30 5.12 4.15 3.15 2.56 2.09 1.55 1.25 1.23 1.26 1.47 1.72 2.49 2.44 1.71 0.63 0.47 0.94 2.24 2.39 0.72 0.22 0.02 0.00 0.01 0.10 0.11 0.11 0.45 0.54 0.44 0.13 0.10 0.06 0.20 0.14 0.18 0.08 0.04 0.05 0.07 0.08 0.08 0.05 0.20 0.23 0.32
4.49 4.67 5.10 4.76 3.44 2.71 2.40 2.05 1.71 1.93 2.33 3.29 4.61 4.29 2.14 0.54 1.03 2.62 4.04 1.79 0.15 0.03 0.01 0.01 0.02 0.02 0.13 0.08 0.23 0.85 0.41 0.17 0.04 0.02 0.10 0.19 0.23 0.09 0.12 0.08 0.05 0.04 0.04 0.10 0.23 0.54 0.43
3.29 3.84 4.15 4.68 4.60 3.64 2.98 2.60 2.55 2.67 3.43 5.16 8.32 7.74 3.33 1.14 3.27 5.69 3.81 0.81 0.06 0.00 0.03 0.06 0.07 0.08 0.06 0.07 0.14 0.37 0.44 0.40 0.09 0.05 0.06 0.13 0.28 0.17 0.18 0.26 0.06 0.04 0.07 0.10 0.21 0.24 0.46
2.65 2.96 3.27 3.75 4.15 4.08 4.09 3.19 3.01 3.57 4.44 8.32 10.76 8.43 4.27 2.47 6.64 5.65 1.57 0.19 0.08 0.03 0.03 0.07 0.05 0.08 0.19 0.21 0.14 0.13 0.22 0.34 0.23 0.25 0.11 0.10 0.21 0.17 0.04 0.10 0.04 0.05 0.08 0.11 0.36 0.35 0.48
2.37 2.67 2.64 2.85 3.39 3.75 3.85 4.76 4.18 4.45 5.91 7.76 9.99 8.11 7.29 4.37 4.59 2.81 0.65 0.23 0.14 0.10 0.05 0.08 0.09 0.07 0.13 0.19 0.27 0.25 0.16 0.14 0.17 0.22 0.29 0.17 0.45 0.56 0.35 0.17 0.11 0.13 0.06 0.13 0.27 0.28 0.50
2.31 2.25 2.28 2.56 2.85 3.33 3.58 4.25 4.92 4.84 5.78 8.43 10.55 10.07 11.24 9.93 3.39 1.25 0.52 0.46 0.34 0.12 0.12 0.10 0.10 0.11 0.15 0.17 0.14 0.27 0.26 0.18 0.07 0.13 0.22 0.29 0.44 0.56 0.80 0.63 0.54 0.29 0.08 0.07 0.16 0.55 0.74
2.37 2.21 2.07 2.24 2.65 2.91 3.41 3.80 4.65 4.80 5.91 10.44 13.04 9.03 5.79 6.02 3.52 0.95 0.48 0.52 0.42 0.37 0.23 0.19 0.29 0.18 0.12 0.34 0.42 0.45 0.30 0.37 0.26 0.21 0.33 0.52 0.50 0.20 0.13 0.17 0.66 0.51 0.18 0.15 0.28 0.21 0.47
2.29 2.19 2.09 2.14 2.46 2.97 3.44 3.69 4.35 5.26 7.47 12.66 12.44 6.83 3.78 2.08 1.12 1.25 1.12 0.76 0.44 0.31 0.42 0.47 0.36 0.23 0.31 0.58 0.41 0.41 0.52 0.76 0.54 0.41 0.50 0.71 0.68 0.27 0.16 0.09 0.42 0.44 0.15 0.11 0.14 0.17 0.33
2.31 2.16 2.21 2.10 2.08 2.50 3.01 3.55 4.05 5.52 9.51 14.31 9.54 4.20 2.57 2.31 1.64 2.12 1.93 0.70 0.38 0.38 0.63 0.45 0.38 0.52 0.77 0.47 0.35 0.58 0.72 0.83 0.58 0.45 0.61 0.77 0.96 1.13 0.89 0.20 0.80 1.33 0.76 0.50 0.36 0.45 0.31
1.90 2.18 2.17 2.19 2.17 2.16 2.49 2.81 3.40 5.05 8.69 9.58 6.02 2.88 3.35 3.36 1.82 1.36 0.62 0.37 0.35 0.48 0.76 0.78 0.67 0.87 0.73 0.41 0.70 1.19 1.33 1.04 0.72 0.54 0.41 0.77 1.00 1.62 1.50 1.13 2.54 1.26 0.65 0.68 0.89 0.67 0.78
1.84 1.94 2.18 2.16 2.23 2.28 2.42 2.66 3.21 3.82 6.32 8.08 5.64 3.63 3.91 3.40 1.95 1.31 0.89 0.74 0.75 0.88 1.33 1.58 1.18 0.85 0.75 1.24 2.51 3.07 2.36 1.74 1.12 0.65 0.43 0.38 0.90 2.42 2.65 2.12 1.33 0.45 0.25 0.30 0.51 0.45 0.35
1.83 1.92 2.18 2.16 2.19 2.06 2.25 2.55 2.70 2.88 4.18 6.71 6.75 4.36 4.78 4.37 2.71 1.01 0.77 0.77 1.09 1.32 1.55 1.58 1.29 1.02 1.27 2.27 3.49 3.49 2.09 1.10 0.70 0.58 0.23 0.32 0.72 2.19 3.34 2.72 1.28 0.52 0.31 0.13 0.35 0.75 0.43
1.88 1.90 2.01 2.09 2.07 2.06 2.08 2.16 2.12 2.47 3.21 4.26 5.24 4.10 6.20 5.88 2.75 1.18 1.02 0.86 0.82 1.25 1.71 1.53 1.56 2.06 2.25 3.30 3.78 2.81 1.71 0.78 0.73 0.82 0.69 0.64 1.20 1.97 1.95 2.64 1.44 0.20 0.23 0.32 1.19 1.32 0.71
1.99 1.91 1.83 1.81 1.79 2.02 2.11 1.95 1.97 2.22 2.97 3.72 3.71 2.80 5.40 5.02 2.90 1.64 1.18 1.00 0.79 1.14 1.98 2.08 2.10 2.52 2.88 3.41 3.91 3.26 2.03 1.14 0.67 0.63 0.96 0.92 1.19 1.41 1.53 2.24 1.70 0.24 0.33 0.94 1.62 0.95 0.82
2.00 1.97 1.89 1.76 1.60 1.64 1.90 1.77 1.94 2.26 3.04 3.49 3.52 2.66 3.82 5.10 3.46 1.72 1.33 0.99 0.91 1.04 1.68 2.41 2.24 1.85 1.68 2.25 2.75 2.36 2.15 1.53 0.98 0.93 0.97 1.28 0.96 1.19 1.09 1.11 0.66 0.49 0.55 0.42 0.24 0.19 0.15

GFSGBSN_prec_precacc_240.txt.gz
Total_Precipitation_Accumulation
0.49 0.31 0.29 0.31 0.31 0.27 0.25 0.23 0.18 0.14 0.09 0.06 0.06 0.05 0.04 0.03 0.02 0.02 0.02 0.01 0.00 0.01 0.01 0.00 0.01 0.02 0.01 0.00 0.00 0.00 0.00 0.00 0.00 0.00 0.00 0.00 0.00 0.00 0.00 0.00 0.00 0.00 0.00 0.00 0.00 0.00 0.00
1.49 1.25 0.78 0.51 0.35 0.26 0.24 0.25 0.28 0.26 0.24 0.19 0.15 0.11 0.08 0.07 0.06 0.04 0.02 0.00 0.01 0.01 0.01 0.01 0.01 0.03 0.01 0.00 0.00 0.00 0.00 0.00 0.00 0.00 0.00 0.00 0.00 0.00 0.00 0.00 0.00 0.00 0.00 0.00 0.00 0.00 0.00
0.69 0.84 1.09 1.09 0.89 0.74 0.57 0.35 0.28 0.26 0.26 0.25 0.21 0.18 0.18 0.16 0.14 0.11 0.05 0.01 0.00 0.01 0.01 0.01 0.02 0.04 0.01 0.00 0.00 0.00 0.00 0.00 0.00 0.00 0.00 0.00 0.00 0.00 0.00 0.00 0.00 0.00 0.00 0.00 0.00 0.00 0.00
0.69 0.60 0.57 0.63 0.86 0.95 0.92 0.80 0.66 0.50 0.39 0.40 0.40 0.37 0.31 0.26 0.17 0.09 0.04 0.01 0.00 0.01 0.01 0.01 0.02 0.03 0.00 0.00 0.00 0.00 0.00 0.00 0.00 0.00 0.00 0.00 0.00 0.00 0.00 0.00 0.00 0.00 0.00 0.00 0.00 0.00 0.00
0.61 0.68 0.66 0.64 0.69 0.70 0.67 0.63 0.55 0.47 0.47 0.42 0.36 0.29 0.25 0.18 0.17 0.16 0.11 0.03 0.00 0.01 0.01 0.01 0.01 0.02 0.00 0.00 0.00 0.00 0.00 0.00 0.00 0.00 0.00 0.00 0.00 0.00 0.00 0.00 0.00 0.00 0.00 0.00 0.00 0.00 0.00
0.47 0.45 0.46 0.47 0.46 0.43 0.37 0.30 0.23 0.21 0.21 0.21 0.19 0.18 0.15 0.13 0.14 0.16 0.11 0.07 0.02 0.00 0.00 0.00 0.02 0.01 0.00 0.00 0.00 0.00 0.00 0.01 0.02 0.00 0.00 0.00 0.00 0.00 0.00 0.00 0.00 0.00 0.00 0.00 0.00 0.00 0.00
0.56 0.48 0.41 0.36 0.33 0.30 0.26 0.27 0.30 0.26 0.21 0.18 0.14 0.11 0.12 0.13 0.15 0.16 0.09 0.06 0.07 0.09 0.04 0.01 0.01 0.01 0.00 0.00 0.00 0.00 0.00 0.00 0.01 0.01 0.01 0.03 0.00 0.00 0.01 0.00 0.00 0.00 0.00 0.00 0.00 0.00 0.00
0.59 0.55 0.49 0.44 0.40 0.43 0.42 0.39 0.33 0.26 0.22 0.18 0.16 0.14 0.13 0.11 0.15 0.14 0.04 0.05 0.03 0.11 0.16 0.03 0.01 0.00 0.00 0.00 0.00 0.00 0.00 0.01 0.02 0.04 0.05 0.04 0.04 0.00 0.00 0.00 0.00 0.02 0.02 0.00 0.00 0.00 0.00
0.76 0.63 0.56 0.49 0.45 0.40 0.40 0.43 0.39 0.38 0.32 0.23 0.18 0.17 0.18 0.16 0.14 0.07 0.01 0.01 0.01 0.07 0.22 0.03 0.00 0.00 0.00 0.01 0.00 0.00 0.00 0.00 0.05 0.11 0.06 0.09 0.03 0.00 0.00 0.00 0.01 0.01 0.01 0.00 0.00 0.00 0.02
0.91 0.81 0.64 0.55 0.51 0.48 0.44 0.42 0.40 0.37 0.33 0.30 0.26 0.23 0.26 0.30 0.13 0.04 0.03 0.01 0.03 0.21 0.42 0.04 0.02 0.03 0.04 0.07 0.01 0.00 0.00 0.00 0.07 0.09 0.09 0.21 0.04 0.02 0.03 0.02 0.01 0.06 0.00 0.00 0.02 0.08 0.10
0.97 0.83 0.72 0.59 0.54 0.54 0.49 0.44 0.36 0.38 0.41 0.45 0.39 0.36 0.39 0.34 0.16 0.10 0.04 0.01 0.13 0.37 0.52 0.05 0.11 0.05 0.07 0.05 0.01 0.06 0.00 0.00 0.02 0.07 0.20 0.33 0.21 0.24 0.22 0.05 0.02 0.07 0.00 0.01 0.01 0.02 0.08
1.76 1.07 0.76 0.64 0.58 0.52 0.51 0.48 0.43 0.39 0.36 0.46 0.55 0.50 0.61 0.47 0.16 0.03 0.01 0.09 0.31 0.84 0.42 0.03 0.14 0.10 0.14 0.09 0.01 0.02 0.01 0.00 0.00 0.05 0.06 0.10 0.03 0.06 0.05 0.00 0.01 0.02 0.02 0.03 0.05 0.09 0.22
3.19 2.33 1.61 1.01 0.85 0.78 0.62 0.57 0.53 0.48 0.42 0.47 0.70 0.81 0.85 0.43 0.22 0.14 0.22 0.57 1.12 0.77 0.06 0.03 0.08 0.25 0.16 0.20 0.22 0.05 0.02 0.00 0.00 0.03 0.07 0.07 0.06 0.05 0.03 0.12 0.05 0.05 0.04 0.14 0.31 0.24 0.12
4.73 3.65 2.69 2.13 1.49 1.06 0.90 0.81 0.76 0.78 0.70 0.74 0.92 1.23 1.33 0.69 0.25 0.33 0.90 1.81 1.39 0.37 0.03 0.00 0.11 0.23 0.24 0.17 0.24 0.05 0.02 0.02 0.02 0.02 0.04 0.05 0.19 0.07 0.05 0.27 0.12 0.05 0.05 0.10 0.36 0.22 0.19
5.30 5.12 4.15 3.15 2.56 2.09 1.55 1.25 1.24 1.26 1.48 1.72 2.50 2.61 2.19 1.03 0.56 0.97 2.36 2.54 0.78 0.22 0.02 0.00 0.01 0.10 0.11 0.11 0.45 0.54 0.44 0.13 0.10 0.06 0.20 0.14 0.18 0.08 0.04 0.05 0.07 0.08 0.08 0.05 0.20 0.23 0.32
4.50 4.68 5.10 4.76 3.44 2.71 2.40 2.06 1.71 1.93 2.34 3.30 4.63 4.41 2.46 0.78 1.16 2.84 4.22 1.97 0.19 0.03 0.01 0.01 0.02 0.02 0.13 0.08 0.23 0.85 0.41 0.17 0.04 0.02 0.10 0.19 0.23 0.09 0.12 0.08 0.05 0.04 0.04 0.10 0.23 0.54 0.43
3.30 3.85 4.15 4.68 4.60 3.64 2.98 2.60 2.55 2.67 3.44 5.17 8.36 7.88 3.55 1.29 3.55 6.17 4.08 0.95 0.08 0.00 0.03 0.06 0.07 0.08 0.06 0.07 0.14 0.37 0.44 0.40 0.09 0.05 0.06 0.13 0.28 0.17 0.18 0.26 0.06 0.04 0.07 0.10 0.21 0.24 0.46
2.67 2.97 3.28 3.75 4.15 4.08 4.09 3.20 3.02 3.57 4.46 8.35 10.80 8.55 4.44 2.62 7.34 6.28 1.85 0.22 0.08 0.03 0.03 0.07 0.05 0.08 0.19 0.21 0.14 0.13 0.22 0.34 0.23 0.25 0.11 0.10 0.21 0.17 0.04 0.10 0.04 0.05 0.08 0.11 0.36 0.35 0.48
2.40 2.70 2.67 2.87 3.40 3.76 3.85 4.76 4.18 4.46 5.93 7.81 10.05 8.20 7.49 4.61 5.29 3.48 0.88 0.23 0.14 0.10 0.05 0.08 0.09 0.07 0.13 0.19 0.27 0.25 0.16 0.14 0.17 0.22 0.29 0.17 0.45 0.56 0.35 0.17 0.11 0.13 0.06 0.13 0.27 0.28 0.50
2.34 2.28 2.31 2.58 2.87 3.35 3.59 4.26 4.93 4.84 5.79 8.49 10.67 10.27 11.58 10.40 3.89 1.60 0.62 0.46 0.34 0.12 0.12 0.10 0.10 0.11 0.15 0.17 0.14 0.27 0.26 0.18 0.07 0.13 0.22 0.29 0.44 0.56 0.80 0.63 0.54 0.29 0.08 0.07 0.16 0.55 0.74
2.41 2.24 2.10 2.26 2.66 2.92 3.43 3.82 4.66 4.81 5.93 10.55 13.24 9.35 6.09 6.59 4.06 1.26 0.52 0.52 0.42 0.37 0.23 0.19 0.29 0.18 0.12 0.34 0.42 0.45 0.30 0.37 0.26 0.21 0.33 0.52 0.50 0.20 0.13 0.17 0.66 0.51 0.18 0.15 0.28 0.21 0.47
2.31 2.22 2.13 2.19 2.50 3.00 3.47 3.71 4.38 5.28 7.50 12.82 12.74 7.14 4.09 2.35 1.41 1.33 1.15 0.76 0.44 0.31 0.42 0.47 0.36 0.23 0.31 0.58 0.41 0.41 0.52 0.76 0.54 0.41 0.50 0.71 0.68 0.27 0.16 0.09 0.42 0.44 0.15 0.11 0.14 0.17 0.33
2.32 2.19 2.25 2.14 2.12 2.53 3.06 3.59 4.08 5.55 9.57 14.52 9.82 4.42 2.90 2.54 1.72 2.14 1.93 0.70 0.38 0.38 0.63 0.45 0.38 0.52 0.77 0.47 0.35 0.58 0.72 0.83 0.58 0.45 0.61 0.77 0.96 1.13 0.89 0.20 0.80 1.33 0.76 0.50 0.36 0.45 0.31
1.90 2.19 2.19 2.25 2.27 2.27 2.56 2.86 3.45 5.11 8.79 9.78 6.24 3.07 3.61 3.68 1.86 1.37 0.62 0.37 0.35 0.48 0.76 0.78 0.67 0.87 0.73 0.41 0.70 1.19 1.33 1.04 0.72 0.54 0.41 0.77 1.00 1.62 1.50 1.13 2.54 1.26 0.65 0.68 0.89 0.67 0.78
1.84 1.94 2.19 2.19 2.30 2.37 2.56 2.79 3.29 3.89 6.40 8.24 5.84 3.80 4.07 3.63 2.02 1.31 0.89 0.74 0.75 0.88 1.33 1.58 1.18 0.85 0.75 1.25 2.52 3.08 2.36 1.74 1.12 0.65 0.43 0.38 0.90 2.42 2.65 2.12 1.33 0.45 0.25 0.30 0.51 0.45 0.35
1.84 1.93 2.21 2.21 2.27 2.16 2.36 2.67 2.82 2.96 4.22 6.89 6.95 4.46 4.90 4.57 2.81 1.01 0.77 0.77 1.09 1.32 1.55 1.58 1.29 1.02 1.27 2.27 3.50 3.49 2.09 1.10 0.70 0.58 0.23 0.32 0.72 2.19 3.34 2.72 1.28 0.52 0.31 0.13 0.35 0.75 0.43
1.89 1.91 2.04 2.18 2.21 2.23 2.25 2.32 2.26 2.54 3.23 4.44 5.48 4.20 6.32 6.08 2.82 1.18 1.02 0.86 0.82 1.25 1.71 1.53 1.56 2.06 2.26 3.32 3.79 2.81 1.71 0.78 0.73 0.82 0.69 0.64 1.20 1.97 1.96 2.64 1.44 0.20 0.23 0.32 1.19 1.32 0.71
2.01 1.92 1.85 1.91 1.99 2.25 2.36 2.24 2.18 2.28 2.99 3.85 4.00 2.95 5.56 5.20 2.97 1.65 1.18 1.00 0.79 1.14 1.98 2.08 2.11 2.56 2.91 3.45 3.96 3.30 2.03 1.14 0.67 0.63 0.96 0.92 1.19 1.41 1.53 2.24 1.70 0.24 0.33 0.94 1.62 0.95 0.82
2.01 1.98 1.91 1.89 1.84 1.90 2.28 2.18 2.24 2.37 3.09 3.56 3.81 2.88 4.01 5.26 3.53 1.77 1.34 0.99 0.91 1.04 1.68 2.41 2.24 1.85 1.70 2.29 2.80 2.39 2.16 1.54 0.98 0.93 0.97 1.28 0.96 1.19 1.09 1.11 0.66 0.49 0.56 0.43 0.25 0.19 0.16

GFSGBSN_prec_precacc_243.txt.gz
Total_Precipitation_Accumulation
0.49 0.31 0.29 0.31 0.31 0.27 0.25 0.23 0.18 0.14 0.09 0.06 0.06 0.05 0.04 0.03 0.02 0.02 0.02 0.01 0.00 0.01 0.01 0.00 0.01 0.02 0.01 0.00 0.00 0.00 0.00 0.00 0.00 0.00 0.00 0.00 0.00 0.00 0.00 0.00 0.00 0.00 0.00 0.00 0.00 0.00 0.00
1.49 1.25 0.78 0.51 0.35 0.26 0.24 0.25 0.28 0.26 0.24 0.19 0.15 0.11 0.08 0.07 0.06 0.04 0.02 0.00 0.01 0.01 0.01 0.01 0.01 0.03 0.01 0.00 0.00 0.00 0.00 0.00 0.00 0.00 0.00 0.00 0.00 0.00 0.00 0.00 0.00 0.00 0.00 0.00 0.00 0.00 0.00
0.69 0.84 1.09 1.09 0.89 0.74 0.57 0.35 0.28 0.26 0.26 0.25 0.21 0.18 0.18 0.16 0.14 0.11 0.05 0.01 0.00 0.01 0.01 0.01 0.02 0.04 0.01 0.00 0.00 0.00 0.00 0.00 0.00 0.00 0.00 0.00 0.00 0.00 0.00 0.00 0.00 0.00 0.00 0.00 0.00 0.00 0.00
0.69 0.60 0.57 0.63 0.86 0.95 0.92 0.80 0.66 0.50 0.39 0.40 0.40 0.37 0.31 0.26 0.17 0.09 0.04 0.01 0.00 0.01 0.01 0.01 0.02 0.03 0.00 0.00 0.00 0.00 0.00 0.00 0.00 0.00 0.00 0.00 0.00 0.00 0.00 0.00 0.00 0.00 0.00 0.00 0.00 0.00 0.00
0.61 0.68 0.66 0.64 0.69 0.70 0.67 0.63 0.55 0.47 0.47 0.42 0.36 0.29 0.25 0.18 0.17 0.16 0.11 0.03 0.00 0.01 0.01 0.01 0.01 0.02 0.00 0.00 0.00 0.00 0.00 0.00 0.00 0.00 0.00 0.00 0.00 0.00 0.00 0.00 0.00 0.00 0.00 0.00 0.00 0.00 0.00
0.47 0.45 0.46 0.47 0.46 0.43 0.37 0.30 0.23 0.21 0.21 0.21 0.19 0.18 0.15 0.13 0.14 0.16 0.11 0.07 0.02 0.00 0.00 0.00 0.02 0.01 0.00 0.00 0.00 0.00 0.00 0.01 0.02 0.00 0.00 0.00 0.00 0.00 0.00 0.00 0.00 0.00 0.00 0.00 0.00 0.00 0.00
0.56 0.48 0.41 0.36 0.33 0.30 0.26 0.27 0.30 0.26 0.21 0.18 0.14 0.11 0.12 0.13 0.15 0.16 0.09 0.06 0.07 0.09 0.04 0.01 0.01 0.01 0.00 0.00 0.00 0.00 0.00 0.00 0.01 0.01 0.01 0.03 0.00 0.00 0.01 0.00 0.00 0.00 0.00 0.00 0.00 0.00 0.00
0.59 0.55 0.49 0.44 0.40 0.43 0.42 0.39 0.33 0.26 0.22 0.18 0.16 0.14 0.14 0.11 0.15 0.14 0.04 0.05 0.03 0.11 0.16 0.03 0.01 0.00 0.00 0.00 0.00 0.00 0.00 0.01 0.02 0.04 0.05 0.04 0.04 0.00 0.00 0.00 0.00 0.02 0.02 0.00 0.00 0.00 0.00
0.76 0.64 0.56 0.49 0.45 0.40 0.40 0.43 0.40 0.38 0.32 0.23 0.18 0.17 0.18 0.17 0.16 0.08 0.01 0.01 0.01 0.07 0.22 0.03 0.00 0.00 0.00 0.01 0.00 0.00 0.00 0.00 0.05 0.11 0.06 0.09 0.03 0.00 0.00 0.00 0.01 0.01 0.01 0.00 0.00 0.00 0.02
0.91 0.82 0.64 0.55 0.51 0.48 0.44 0.42 0.40 0.37 0.33 0.30 0.26 0.25 0.28 0.41 0.26 0.05 0.03 0.01 0.03 0.21 0.42 0.04 0.02 0.03 0.04 0.07 0.01 0.00 0.00 0.00 0.07 0.09 0.09 0.21 0.04 0.02 0.03 0.02 0.01 0.06 0.00 0.00 0.02 0.08 0.10
0.97 0.83 0.72 0.59 0.54 0.54 0.49 0.44 0.36 0.38 0.41 0.45 0.39 0.37 0.49 0.63 0.35 0.13 0.04 0.01 0.13 0.37 0.52 0.05 0.11 0.05 0.07 0.05 0.01 0.06 0.00 0.00 0.02 0.07 0.20 0.33 0.21 0.24 0.22 0.05 0.02 0.07 0.00 0.01 0.01 0.02 0.08
1.76 1.07 0.76 0.64 0.58 0.52 0.51 0.48 0.43 0.39 0.36 0.46 0.55 0.50 0.65 0.74 0.44 0.08 0.01 0.09 0.31 0.85 0.42 0.03 0.14 0.10 0.14 0.09 0.01 0.02 0.01 0.00 0.00 0.05 0.06 0.10 0.03 0.06 0.05 0.00 0.01 0.02 0.02 0.03 0.05 0.09 0.22
3.20 2.33 1.61 1.01 0.85 0.78 0.62 0.57 0.53 0.48 0.42 0.48 0.70 0.81 0.88 0.57 0.45 0.20 0.24 0.58 1.16 0.79 0.06 0.03 0.08 0.25 0.16 0.20 0.22 0.05 0.02 0.00 0.00 0.03 0.07 0.07 0.06 0.05 0.03 0.12 0.05 0.05 0.04 0.14 0.31 0.24 0.12
4.74 3.65 2.69 2.13 1.49 1.06 0.90 0.81 0.76 0.78 0.70 0.74 0.93 1.23 1.34 0.80 0.36 0.41 1.16 2.04 1.60 0.41 0.03 0.00 0.11 0.23 0.24 0.17 0.24 0.05 0.02 0.02 0.02 0.02 0.04 0.05 0.19 0.07 0.05 0.27 0.12 0.05 0.05 0.10 0.36 0.22 0.19
5.31 5.13 4.15 3.15 2.56 2.09 1.55 1.25 1.24 1.26 1.48 1.73 2.51 2.62 2.19 1.07 0.62 1.26 2.82 3.06 1.13 0.30 0.02 0.00 0.01 0.10 0.11 0.11 0.45 0.54 0.44 0.13 0.10 0.06 0.20 0.14 0.18 0.08 0.04 0.05 0.07 0.08 0.08 0.05 0.20 0.23 0.32
4.51 4.69 5.10 4.76 3.44 2.71 2.40 2.06 1.71 1.93 2.34 3.31 4.64 4.42 2.46 0.78 1.21 3.25 4.84 2.53 0.37 0.04 0.01 0.01 0.02 0.02 0.13 0.08 0.23 0.85 0.41 0.17 0.04 0.02 0.10 0.19 0.23 0.09 0.12 0.08 0.05 0.04 0.04 0.10 0.23 0.54 0.43
3.31 3.86 4.16 4.69 4.60 3.64 2.98 2.61 2.56 2.68 3.45 5.19 8.38 7.89 3.55 1.29 3.61 6.69 4.99 1.34 0.21 0.01 0.03 0.06 0.07 0.08 0.06 0.07 0.14 0.37 0.44 0.40 0.09 0.05 0.06 0.13 0.28 0.17 0.18 0.26 0.06 0.04 0.07 0.10 0.21 0.24 0.46
2.67 2.98 3.29 3.76 4.16 4.09 4.09 3.20 3.02 3.59 4.48 8.39 10.83 8.57 4.45 2.63 7.40 6.65 2.53 0.51 0.11 0.03 0.03 0.07 0.05 0.08 0.19 0.21 0.14 0.13 0.22 0.34 0.23 0.25 0.11 0.10 0.21 0.17 0.04 0.10 0.04 0.05 0.08 0.11 0.36 0.35 0.48
2.40 2.71 2.68 2.89 3.42 3.78 3.87 4.77 4.19 4.48 5.95 7.81 10.07 8.21 7.50 4.67 5.40 3.67 1.25 0.39 0.15 0.10 0.05 0.08 0.09 0.07 0.13 0.19 0.27 0.25 0.16 0.14 0.17 0.22 0.29 0.17 0.45 0.56 0.35 0.17 0.11 0.13 0.06 0.13 0.27 0.28 0.50
2.35 2.29 2.32 2.61 2.91 3.39 3.62 4.28 4.94 4.86 5.82 8.52 10.69 10.30 11.60 10.42 3.97 1.83 0.84 0.62 0.36 0.12 0.12 0.10 0.10 0.11 0.15 0.17 0.14 0.27 0.26 0.18 0.07 0.13 0.22 0.29 0.44 0.56 0.80 0.63 0.54 0.29 0.08 0.07 0.16 0.55 0.74
2.42 2.26 2.11 2.27 2.67 2.93 3.44 3.83 4.68 4.84 5.96 10.62 13.30 9.39 6.12 6.61 4.08 1.44 0.71 0.60 0.44 0.37 0.23 0.19 0.29 0.18 0.12 0.34 0.42 0.45 0.30 0.37 0.26 0.21 0.33 0.52 0.50 0.20 0.13 0.17 0.66 0.51 0.18 0.15 0.28 0.21 0.47
2.32 2.23 2.14 2.19 2.51 3.03 3.50 3.75 4.40 5.31 7.55 12.93 12.79 7.18 4.12 2.36 1.44 1.42 1.26 0.82 0.44 0.31 0.42 0.47 0.36 0.23 0.31 0.58 0.41 0.41 0.52 0.76 0.54 0.41 0.50 0.71 0.68 0.27 0.16 0.09 0.42 0.44 0.15 0.11 0.14 0.17 0.33
2.33 2.19 2.25 2.15 2.13 2.55 3.09 3.64 4.14 5.61 9.67 14.63 9.86 4.45 2.94 2.57 1.76 2.28 2.00 0.75 0.39 0.38 0.63 0.45 0.38 0.52 0.77 0.47 0.35 0.58 0.72 0.83 0.58 0.45 0.61 0.77 0.96 1.13 0.89 0.20 0.80 1.33 0.76 0.50 0.36 0.45 0.31
1.91 2.19 2.19 2.25 2.29 2.29 2.59 2.91 3.52 5.17 8.86 9.84 6.28 3.09 3.64 3.72 1.92 1.53 0.67 0.38 0.35 0.48 0.76 0.78 0.67 0.87 0.73 0.41 0.70 1.19 1.33 1.04 0.72 0.54 0.41 0.77 1.00 1.62 1.50 1.13 2.54 1.26 0.65 0.68 0.89 0.67 0.78
1.84 1.95 2.20 2.19 2.30 2.38 2.58 2.87 3.39 3.96 6.45 8.29 5.86 3.83 4.09 3.64 2.04 1.36 0.93 0.75 0.75 0.88 1.33 1.58 1.18 0.85 0.75 1.25 2.52 3.08 2.36 1.74 1.12 0.65 0.43 0.38 0.91 2.42 2.65 2.12 1.33 0.45 0.25 0.30 0.51 0.45 0.35
1.86 1.95 2.24 2.24 2.32 2.21 2.40 2.70 2.92 3.12 4.33 6.95 6.99 4.47 4.93 4.61 2.84 1.03 0.78 0.78 1.09 1.32 1.55 1.58 1.29 1.02 1.27 2.28 3.52 3.50 2.10 1.10 0.70 0.58 0.23 0.32 0.72 2.19 3.34 2.72 1.28 0.52 0.31 0.13 0.35 0.75 0.43
1.92 1.94 2.07 2.22 2.28 2.30 2.31 2.36 2.29 2.62 3.38 4.61 5.60 4.21 6.33 6.12 2.91 1.21 1.03 0.89 0.83 1.27 1.72 1.53 1.56 2.06 2.26 3.33 3.82 2.81 1.71 0.78 0.73 0.82 0.69 0.64 1.20 1.97 1.96 2.64 1.44 0.20 0.23 0.32 1.19 1.32 0.71
2.02 1.94 1.88 1.97 2.05 2.33 2.44 2.31 2.23 2.32 3.05 4.00 4.18 2.98 5.57 5.23 3.10 1.72 1.20 1.01 0.82 1.17 2.00 2.08 2.11 2.57 2.92 3.47 3.97 3.30 2.03 1.14 0.67 0.63 0.96 0.92 1.19 1.41 1.53 2.24 1.70 0.24 0.33 0.94 1.62 0.95 0.82
2.02 1.99 1.96 1.94 1.90 2.00 2.37 2.27 2.33 2.44 3.16 3.69 3.94 2.92 4.03 5.32 3.74 1.92 1.40 1.03 0.93 1.06 1.68 2.41 2.24 1.87 1.72 2.30 2.80 2.39 2.16 1.54 0.98 0.93 0.97 1.28 0.96 1.19 1.09 1.11 0.66 0.49 0.56 0.43 0.25 0.19 0.16

GFSGBSN_prec_precacc_246.txt.gz
Total_Precipitation_Accumulation
0.49 0.31 0.29 0.31 0.31 0.27 0.25 0.23 0.18 0.14 0.10 0.07 0.06 0.05 0.04 0.03 0.02 0.02 0.02 0.01 0.00 0.01 0.01 0.00 0.01 0.02 0.01 0.00 0.00 0.00 0.00 0.00 0.00 0.00 0.00 0.00 0.00 0.00 0.00 0.00 0.00 0.00 0.00 0.00 0.00 0.00 0.00
1.49 1.25 0.78 0.51 0.35 0.26 0.24 0.25 0.28 0.26 0.24 0.19 0.15 0.11 0.08 0.07 0.06 0.04 0.02 0.00 0.01 0.01 0.01 0.01 0.01 0.03 0.01 0.00 0.00 0.00 0.00 0.00 0.00 0.00 0.00 0.00 0.00 0.00 0.00 0.00 0.00 0.00 0.00 0.00 0.00 0.00 0.00
0.69 0.84 1.09 1.09 0.89 0.74 0.57 0.35 0.28 0.26 0.26 0.25 0.21 0.18 0.18 0.16 0.14 0.11 0.05 0.01 0.00 0.01 0.01 0.01 0.02 0.04 0.01 0.00 0.00 0.00 0.00 0.00 0.00 0.00 0.00 0.00 0.00 0.00 0.00 0.00 0.00 0.00 0.00 0.00 0.00 0.00 0.00
0.69 0.60 0.57 0.63 0.86 0.95 0.92 0.80 0.66 0.50 0.39 0.40 0.40 0.37 0.31 0.26 0.17 0.09 0.04 0.01 0.00 0.01 0.01 0.01 0.02 0.03 0.00 0.00 0.00 0.00 0.00 0.00 0.00 0.00 0.00 0.00 0.00 0.00 0.00 0.00 0.00 0.00 0.00 0.00 0.00 0.00 0.00
0.61 0.68 0.66 0.64 0.69 0.70 0.67 0.63 0.55 0.47 0.47 0.42 0.36 0.29 0.25 0.19 0.17 0.16 0.11 0.03 0.00 0.01 0.01 0.01 0.01 0.02 0.00 0.00 0.00 0.00 0.00 0.00 0.00 0.00 0.00 0.00 0.00 0.00 0.00 0.00 0.00 0.00 0.00 0.00 0.00 0.00 0.00
0.47 0.45 0.46 0.47 0.46 0.43 0.37 0.30 0.23 0.21 0.21 0.21 0.19 0.18 0.15 0.13 0.14 0.16 0.11 0.07 0.02 0.00 0.00 0.00 0.02 0.01 0.00 0.00 0.00 0.00 0.00 0.01 0.02 0.00 0.00 0.00 0.00 0.00 0.00 0.00 0.00 0.00 0.00 0.00 0.00 0.00 0.00
0.56 0.48 0.41 0.36 0.33 0.30 0.26 0.27 0.30 0.26 0.21 0.18 0.14 0.11 0.12 0.13 0.16 0.16 0.09 0.06 0.07 0.09 0.04 0.01 0.01 0.01 0.00 0.00 0.00 0.00 0.00 0.00 0.01 0.01 0.01 0.03 0.00 0.00 0.01 0.00 0.00 0.00 0.00 0.00 0.00 0.00 0.00
0.59 0.55 0.49 0.44 0.40 0.43 0.42 0.39 0.33 0.26 0.22 0.18 0.16 0.14 0.14 0.12 0.16 0.16 0.05 0.05 0.03 0.11 0.16 0.03 0.01 0.00 0.00 0.00 0.00 0.00 0.00 0.01 0.02 0.04 0.05 0.04 0.04 0.00 0.00 0.00 0.00 0.02 0.02 0.00 0.00 0.00 0.00
0.76 0.64 0.56 0.49 0.45 0.40 0.40 0.43 0.40 0.38 0.32 0.23 0.18 0.17 0.18 0.17 0.20 0.11 0.02 0.01 0.01 0.07 0.22 0.03 0.00 0.00 0.00 0.01 0.00 0.00 0.00 0.00 0.05 0.11 0.06 0.09 0.03 0.00 0.00 0.00 0.01 0.01 0.01 0.00 0.00 0.00 0.02
0.91 0.82 0.64 0.55 0.51 0.48 0.44 0.42 0.40 0.37 0.33 0.30 0.26 0.25 0.28 0.42 0.36 0.10 0.04 0.01 0.03 0.21 0.42 0.04 0.02 0.03 0.04 0.07 0.01 0.00 0.00 0.00 0.07 0.09 0.09 0.21 0.04 0.02 0.03 0.02 0.01 0.06 0.00 0.00 0.02 0.08 0.10
0.97 0.83 0.72 0.59 0.54 0.54 0.49 0.44 0.36 0.38 0.41 0.45 0.39 0.37 0.49 0.64 0.44 0.26 0.05 0.01 0.14 0.38 0.53 0.05 0.11 0.05 0.07 0.05 0.01 0.06 0.00 0.00 0.02 0.07 0.20 0.33 0.21 0.24 0.22 0.05 0.02 0.07 0.00 0.01 0.01 0.02 0.08
1.77 1.07 0.77 0.64 0.59 0.52 0.51 0.48 0.43 0.39 0.36 0.46 0.55 0.50 0.66 0.74 0.45 0.10 0.03 0.13 0.45 1.03 0.50 0.03 0.14 0.10 0.14 0.09 0.01 0.02 0.01 0.00 0.00 0.05 0.06 0.10 0.03 0.06 0.05 0.00 0.01 0.02 0.02 0.03 0.05 0.09 0.22
3.20 2.33 1.62 1.01 0.85 0.78 0.62 0.57 0.53 0.48 0.43 0.48 0.70 0.81 0.88 0.57 0.46 0.22 0.40 0.84 1.56 1.27 0.15 0.03 0.08 0.25 0.16 0.20 0.22 0.05 0.02 0.00 0.00 0.03 0.07 0.07 0.06 0.05 0.03 0.12 0.05 0.05 0.04 0.14 0.31 0.24 0.12
4.74 3.66 2.69 2.13 1.49 1.06 0.90 0.81 0.76 0.78 0.70 0.74 0.93 1.23 1.34 0.80 0.36 0.46 1.45 2.60 2.03 0.72 0.10 0.00 0.11 0.23 0.24 0.17 0.24 0.05 0.02 0.02 0.02 0.02 0.04 0.05 0.19 0.07 0.05 0.27 0.12 0.05 0.05 0.10 0.36 0.22 0.19
5.31 5.13 4.15 3.15 2.56 2.09 1.55 1.25 1.24 1.27 1.48 1.73 2.51 2.62 2.20 1.07 0.62 1.29 3.07 3.70 1.56 0.43 0.03 0.00 0.01 0.10 0.11 0.11 0.45 0.54 0.44 0.13 0.10 0.06 0.20 0.14 0.18 0.08 0.04 0.05 0.07 0.08 0.08 0.05 0.20 0.23 0.32
4.51 4.69 5.11 4.77 3.44 2.71 2.40 2.06 1.72 1.93 2.34 3.32 4.64 4.42 2.46 0.78 1.21 3.27 5.04 2.90 0.61 0.06 0.01 0.01 0.02 0.02 0.13 0.08 0.23 0.85 0.41 0.17 0.04 0.02 0.10 0.19 0.23 0.09 0.12 0.08 0.05 0.04 0.04 0.10 0.23 0.54 0.43
3.31 3.87 4.17 4.70 4.61 3.65 2.99 2.61 2.56 2.69 3.46 5.22 8.38 7.90 3.55 1.29 3.62 6.71 5.12 1.50 0.30 0.01 0.03 0.06 0.07 0.08 0.06 0.07 0.14 0.37 0.44 0.40 0.09 0.05 0.06 0.13 0.28 0.17 0.18 0.26 0.06 0.04 0.07 0.10 0.21 0.24 0.46
2.67 2.98 3.29 3.76 4.16 4.09 4.10 3.21 3.04 3.60 4.51 8.44 10.83 8.57 4.45 2.64 7.40 6.65 2.57 0.59 0.13 0.03 0.03 0.07 0.05 0.08 0.19 0.21 0.14 0.13 0.22 0.34 0.23 0.25 0.11 0.10 0.21 0.17 0.04 0.10 0.04 0.05 0.08 0.11 0.36 0.35 0.48
2.41 2.71 2.68 2.89 3.42 3.78 3.87 4.78 4.21 4.49 5.98 7.83 10.08 8.21 7.51 4.75 5.43 3.67 1.26 0.42 0.16 0.10 0.05 0.08 0.09 0.07 0.13 0.19 0.27 0.25 0.16 0.14 0.17 0.22 0.29 0.17 0.45 0.56 0.35 0.17 0.11 0.13 0.06 0.13 0.27 0.28 0.50
2.35 2.29 2.33 2.61 2.91 3.40 3.64 4.31 4.98 4.89 5.86 8.56 10.71 10.31 11.61 10.43 3.99 1.85 0.86 0.63 0.38 0.13 0.12 0.10 0.10 0.11 0.15 0.17 0.14 0.27 0.26 0.18 0.07 0.13 0.22 0.29 0.44 0.56 0.80 0.63 0.54 0.29 0.08 0.07 0.16 0.55 0.74
2.43 2.26 2.12 2.27 2.67 2.94 3.44 3.84 4.71 4.90 6.03 10.71 13.36 9.42 6.13 6.62 4.08 1.44 0.72 0.61 0.46 0.39 0.24 0.20 0.30 0.18 0.12 0.35 0.42 0.45 0.30 0.37 0.26 0.21 0.33 0.52 0.50 0.20 0.13 0.17 0.66 0.51 0.18 0.15 0.28 0.21 0.47
2.32 2.24 2.15 2.20 2.52 3.03 3.51 3.76 4.42 5.34 7.64 13.08 12.89 7.21 4.12 2.36 1.44 1.43 1.26 0.83 0.47 0.33 0.44 0.51 0.38 0.23 0.31 0.58 0.41 0.41 0.52 0.76 0.54 0.41 0.50 0.71 0.68 0.27 0.16 0.09 0.42 0.44 0.15 0.11 0.14 0.17 0.33
2.33 2.19 2.26 2.15 2.14 2.56 3.11 3.66 4.16 5.65 9.76 14.90 10.04 4.46 2.96 2.58 1.76 2.29 2.02 0.75 0.39 0.39 0.65 0.47 0.41 0.53 0.77 0.47 0.35 0.58 0.72 0.83 0.58 0.45 0.61 0.77 0.96 1.13 0.89 0.20 0.80 1.33 0.76 0.50 0.36 0.45 0.31
1.91 2.19 2.20 2.26 2.29 2.30 2.61 2.92 3.53 5.22 8.96 9.97 6.40 3.10 3.66 3.74 1.93 1.53 0.67 0.38 0.36 0.48 0.77 0.79 0.68 0.88 0.73 0.41 0.70 1.19 1.33 1.04 0.72 0.54 0.41 0.77 1.01 1.62 1.50 1.13 2.54 1.26 0.65 0.68 0.89 0.67 0.78
1.84 1.96 2.21 2.20 2.31 2.39 2.59 2.87 3.39 4.00 6.59 8.54 6.00 3.85 4.11 3.67 2.04 1.36 0.93 0.75 0.76 0.89 1.33 1.58 1.19 0.86 0.75 1.25 2.52 3.10 2.40 1.77 1.14 0.65 0.43 0.39 0.91 2.44 2.66 2.12 1.33 0.45 0.25 0.30 0.51 0.45 0.35
1.87 1.97 2.26 2.26 2.34 2.22 2.41 2.72 2.94 3.14 4.41 7.22 7.31 4.57 4.96 4.65 2.86 1.03 0.78 0.78 1.10 1.35 1.57 1.60 1.29 1.02 1.28 2.30 3.57 3.60 2.15 1.13 0.71 0.58 0.23 0.32 0.72 2.20 3.34 2.73 1.28 0.52 0.31 0.13 0.35 0.75 0.43
1.94 1.97 2.11 2.26 2.32 2.34 2.34 2.39 2.32 2.65 3.44 4.82 5.94 4.38 6.36 6.18 2.92 1.21 1.03 0.89 0.83 1.30 1.83 1.59 1.59 2.09 2.32 3.44 3.95 2.91 1.73 0.78 0.73 0.82 0.69 0.64 1.20 1.97 1.96 2.64 1.44 0.20 0.23 0.32 1.19 1.32 0.71
2.04 1.96 1.90 1.99 2.08 2.36 2.49 2.35 2.26 2.35 3.08 4.14 4.58 3.28 5.62 5.26 3.11 1.72 1.20 1.03 0.83 1.21 2.13 2.20 2.16 2.61 3.05 3.66 4.16 3.37 2.04 1.14 0.67 0.63 0.96 0.92 1.19 1.41 1.53 2.24 1.70 0.24 0.33 0.94 1.62 0.95 0.82
2.04 2.01 1.98 1.98 1.94 2.04 2.42 2.32 2.37 2.47 3.18 3.73 4.10 3.28 4.31 5.35 3.75 1.93 1.40 1.04 0.97 1.10 1.75 2.50 2.44 1.92 1.82 2.43 2.84 2.39 2.16 1.54 0.98 0.93 0.97 1.28 0.96 1.19 1.09 1.11 0.66 0.49 0.56 0.43 0.25 0.19 0.16